Weather History for Reno - Stead, NV

Change the Weather History Date:

Monday, October 1, 2012

  Actual Average (KRNO) Record (KRNO)
Temperature  
Mean Temperature 62 °F 60 °F  
Max Temperature 84 °F 76 °F 93 °F (2010)
Min Temperature 41 °F 44 °F 21 °F (1950)
Degree Days  
Heating Degree Days 2 6  
Month to date heating degree days 6  
Since 1 July heating degree days 96  
Cooling Degree Days 0 1  
Month to date cooling degree days 1  
Year to date cooling degree days 835  
Growing Degree Days 12 (Base 50)    
Moisture  
Dew Point 20 °F    
Average Humidity 20    
Maximum Humidity 37    
Minimum Humidity 10    
Precipitation  
Precipitation 0.00 in 0.02 in 0.54 in (1972)
Month to date precipitation 0.02  
Year to date precipitation 5.06  
Snow  
Snow - 0.00 in 0.00 in ()
Month to date snowfall 0.0  
Since 1 July snowfall 0.1  
Since 1 September snowfall 0.1  
Snow Depth -    
Sea Level Pressure  
Sea Level Pressure 30.29 in    
Wind  
Wind Speed 3 mph ()    
Max Wind Speed 9 mph    
Max Gust Speed -    
Visibility 10.0 miles    
Events      
T = Trace of Precipitation, MM = Missing Value Source: Averaged Metar Reports

Daily Weather History Graph

Daily Weather History Graph

Search for Another Location

Airport:

Trip Planner

Search our weather history database for the weather conditions in past years. The results will help you decide how hot, cold, wet, or windy it might be!

Date:

Astronomy

Oct. 01, 2012 Rise Set
Actual Time 6:56 AM PDT 6:40 PM PDT
Civil Twilight 6:29 AM PDT 7:07 PM PDT
Nautical Twilight 5:58 AM PDT 7:39 PM PDT
Astronomical Twilight 5:26 AM PDT 8:10 PM PDT
Moon 7:21 PM PDT (10/1) 8:30 AM PDT (10/1)
Length of Visible Light 12h 38m
Length of Day
11h 44m
Full, 97% of the Moon is Illuminated
Oct 1
Full
Oct 8
Last Quarter
Oct 15
New
Oct 21
First Quarter
Oct 29
Full

Hourly Weather History & Observations

Time (PDT) Temp. Windchill Dew Point Humidity Pressure Visibility Wind Dir Wind Speed Gust Speed Precip Events Conditions
12:15 AM 53.6 °F - 17.6 °F 24% 30.32 in 10.0 mi Calm Calm - N/A   Clear
12:35 AM 50.0 °F - 14.0 °F 24% 30.32 in 10.0 mi North 3.5 mph - N/A   Clear
1:15 AM 53.6 °F - 17.6 °F 24% 30.32 in 10.0 mi NNW 3.5 mph - N/A   Clear
1:35 AM 50.0 °F - 15.8 °F 26% 30.32 in 10.0 mi North 3.5 mph - N/A   Clear
2:15 AM 48.2 °F - 19.4 °F 32% 30.33 in 10.0 mi Calm Calm - N/A   Clear
2:35 AM 50.0 °F - 17.6 °F 28% 30.33 in 10.0 mi Calm Calm - N/A   Clear
2:55 AM 46.4 °F 45.2 °F 15.8 °F 29% 30.33 in 10.0 mi NNW 3.5 mph - N/A   Clear
3:15 AM 48.2 °F - 17.6 °F 30% 30.33 in 10.0 mi NW 3.5 mph - N/A   Clear
3:35 AM 50.0 °F - 19.4 °F 30% 30.33 in 10.0 mi Calm Calm - N/A   Clear
3:55 AM 53.6 °F - 19.4 °F 26% 30.33 in 10.0 mi Calm Calm - N/A   Clear
4:15 AM 50.0 °F - 17.6 °F 28% 30.33 in 10.0 mi WSW 3.5 mph - N/A   Clear
4:35 AM 44.6 °F - 14.0 °F 29% 30.34 in 10.0 mi Calm Calm - N/A   Clear
5:15 AM 48.2 °F - 17.6 °F 30% 30.34 in 10.0 mi Calm Calm - N/A   Clear
5:35 AM 46.4 °F - 17.6 °F 32% 30.34 in 10.0 mi Calm Calm - N/A   Clear
5:55 AM 42.8 °F 40.1 °F 17.6 °F 36% 30.34 in 10.0 mi NNW 4.6 mph - N/A   Clear
6:15 AM 41.0 °F 39.0 °F 15.8 °F 36% 30.34 in 10.0 mi North 3.5 mph - N/A   Clear
6:35 AM 42.8 °F 41.1 °F 15.8 °F 34% 30.34 in 10.0 mi NNW 3.5 mph - N/A   Clear
7:15 AM 44.6 °F 43.1 °F 19.4 °F 37% 30.35 in 10.0 mi NNW 3.5 mph - N/A   Clear
7:35 AM 46.4 °F - 19.4 °F 34% 30.35 in 10.0 mi Calm Calm - N/A   Clear
7:55 AM 46.4 °F - 17.6 °F 32% 30.36 in 10.0 mi Calm Calm - N/A   Clear
8:15 AM 50.0 °F - 19.4 °F 30% 30.36 in 10.0 mi Calm Calm - N/A   Clear
8:35 AM 53.6 °F - 21.2 °F 28% 30.36 in 10.0 mi Calm Calm - N/A   Clear
8:55 AM 55.4 °F - 21.2 °F 26% 30.37 in 10.0 mi Calm Calm - N/A   Clear
9:15 AM 59.0 °F - 23.0 °F 25% 30.37 in 10.0 mi Calm Calm - N/A   Clear
9:35 AM 62.6 °F - 23.0 °F 22% 30.37 in 10.0 mi Calm Calm - N/A   Clear
9:55 AM 66.2 °F - 24.8 °F 21% 30.37 in 10.0 mi Calm Calm - N/A   Clear
10:15 AM 68.0 °F - 24.8 °F 20% 30.37 in 10.0 mi SE 4.6 mph - N/A   Clear
10:35 AM 71.6 °F - 23.0 °F 16% 30.36 in 10.0 mi ESE 5.8 mph - N/A   Clear
10:55 AM 73.4 °F - 24.8 °F 16% 30.35 in 10.0 mi ESE 4.6 mph - N/A   Clear
11:15 AM 75.2 °F - 23.0 °F 14% 30.35 in 10.0 mi ESE 6.9 mph - N/A   Clear
11:35 AM 77.0 °F - 23.0 °F 13% 30.34 in 10.0 mi ENE 3.5 mph - N/A   Clear
12:15 PM 77.0 °F - 23.0 °F 13% 30.33 in 10.0 mi SE 5.8 mph - N/A   Clear
12:35 PM 77.0 °F - 23.0 °F 13% 30.33 in 10.0 mi East 6.9 mph - N/A   Clear
12:55 PM 78.8 °F - 23.0 °F 13% 30.32 in 10.0 mi Calm Calm - N/A   Clear
1:15 PM 80.6 °F - 23.0 °F 12% 30.31 in 10.0 mi East 5.8 mph - N/A   Clear
1:35 PM 80.6 °F - 23.0 °F 12% 30.29 in 10.0 mi SE 8.1 mph - N/A   Clear
2:15 PM 82.4 °F - 23.0 °F 11% 30.27 in 10.0 mi South 6.9 mph - N/A   Clear
2:35 PM 82.4 °F - 23.0 °F 11% 30.26 in 10.0 mi South 8.1 mph - N/A   Clear
2:55 PM 82.4 °F - 21.2 °F 10% 30.26 in 10.0 mi South 8.1 mph - N/A   Clear
3:15 PM 82.4 °F - 21.2 °F 10% 30.25 in 10.0 mi East 3.5 mph - N/A   Clear
3:35 PM 82.4 °F - 21.2 °F 10% 30.24 in 10.0 mi Calm Calm - N/A   Clear
3:55 PM 84.2 °F - 21.2 °F 10% 30.24 in 10.0 mi SSE 5.8 mph - N/A   Clear
4:15 PM 82.4 °F - 21.2 °F 10% 30.23 in 10.0 mi SSE 5.8 mph - N/A   Clear
4:35 PM 82.4 °F - 21.2 °F 10% 30.22 in 10.0 mi SW 3.5 mph - N/A   Clear
4:55 PM 84.2 °F - 21.2 °F 10% 30.22 in 10.0 mi East 9.2 mph - N/A   Clear
5:15 PM 82.4 °F - 19.4 °F 10% 30.22 in 10.0 mi East 4.6 mph - N/A   Clear
5:35 PM 82.4 °F - 21.2 °F 10% 30.21 in 10.0 mi ENE 6.9 mph - N/A   Clear
5:55 PM 82.4 °F - 21.2 °F 10% 30.21 in 10.0 mi NE 5.8 mph - N/A   Clear
6:15 PM 80.6 °F - 19.4 °F 10% 30.21 in 10.0 mi ENE 9.2 mph - N/A   Clear
6:35 PM 77.0 °F - 19.4 °F 12% 30.21 in 10.0 mi ENE 8.1 mph - N/A   Clear
6:55 PM 75.2 °F - 19.4 °F 12% 30.22 in 10.0 mi North 3.5 mph - N/A   Clear
7:15 PM 71.6 °F - 17.6 °F 13% 30.22 in 10.0 mi West 6.9 mph - N/A   Clear
7:35 PM 68.0 °F - 17.6 °F 15% 30.23 in 10.0 mi Calm Calm - N/A   Clear
7:55 PM 69.8 °F - 19.4 °F 15% 30.23 in 10.0 mi Calm Calm - N/A   Clear
8:15 PM 68.0 °F - 19.4 °F 16% 30.23 in 10.0 mi Calm Calm - N/A   Clear
8:35 PM 66.2 °F - 19.4 °F 17% 30.23 in 10.0 mi Calm Calm - N/A   Clear
9:15 PM 62.6 °F - 19.4 °F 19% 30.24 in 10.0 mi Calm Calm - N/A   Clear
9:35 PM 57.2 °F - 17.6 °F 21% 30.24 in 10.0 mi North 4.6 mph - N/A   Clear
9:55 PM 55.4 °F - 15.8 °F 21% 30.24 in 10.0 mi NW 3.5 mph - N/A   Clear
10:15 PM 53.6 °F - 17.6 °F 24% 30.24 in 10.0 mi North 6.9 mph - N/A   Clear
10:35 PM 55.4 °F - 17.6 °F 23% 30.24 in 10.0 mi North 4.6 mph - N/A   Clear
10:55 PM 55.4 °F - 17.6 °F 23% 30.24 in 10.0 mi Calm Calm - N/A   Clear
11:15 PM 57.2 °F - 17.6 °F 21% 30.23 in 10.0 mi North 5.8 mph - N/A   Clear
11:35 PM 51.8 °F - 17.6 °F 26% 30.23 in 10.0 mi NW 4.6 mph - N/A   Clear
11:55 PM 50.0 °F - 15.8 °F 26% 30.23 in 10.0 mi North 5.8 mph - N/A   Clear